Regional Weather Roundup
Issued by NWS Upton, NY

Current Version | Previous Version | Graphics & Text | Print | Product List | Glossary Off
Versions: 1 2 3 4 5 6 7 8 9 10 11 12 13 14 15 16 17 18 19 20 21 22 23 24 25 26 27 28 29 30 31 32 33 34 35 36 37 38 39 40 41 42 43 44 45 46 47 48 49 50

000
ASUS41 KOKX 290304
RWROKX

REGIONAL WEATHER ROUNDUP
NATIONAL WEATHER SERVICE NEW YORK NY
1100 PM EDT SUN AUG 28 2016

NOTE: "FAIR" INDICATES FEW OR NO CLOUDS BELOW 12,000 FEET WITH NO
SIGNIFICANT WEATHER AND/OR OBSTRUCTIONS TO VISIBILITY.

NYZ071-072-176-178-NJZ106-104-290400-
NEW YORK CITY METRO AREA

CITY           SKY/WX    TMP DP  RH WIND       PRES   REMARKS
Central Park   NOT AVBL
LaGuardia APRT PTCLDY    77  67  71 S10       30.16R
Kennedy INTL   PTCLDY    76  72  87 S7        30.18R
Newark/Liberty PTCLDY    76  66  71 S7        30.17R
Bronx Bot Gard   N/A     75  64  69 CALM      30.19R
Wall St Helipt CLEAR     77  70  78 SW6       30.18R
Teterboro      CLEAR     76  66  71 S5        30.16R
$$

NYZ177-179-078>081-290400-
LONG ISLAND NEW YORK

CITY           SKY/WX    TMP DP  RH WIND       PRES   REMARKS
Farmingdale    CLEAR     74  66  76 S6        30.18R
MacArthur/ISP  PTCLDY    73  66  78 S6        30.17R
Shirley        CLEAR     71  66  84 S6        30.18R
Riverhead      NOT AVBL
Westhampton    CLEAR     68  64  87 S5        30.19S
Southampton      N/A     73  68  83 S6        30.14R
Bridgehampton    N/A     68  64  88 CALM      30.16S
East Hampton   FAIR      64  62  93 CALM      30.17S
Montauk          N/A     71  66  84 VRB3      30.18F
$$

NYZ052-065-067-290400-
HUDSON VALLEY

CITY           SKY/WX    TMP DP  RH WIND       PRES   REMARKS
White Plains   CLEAR     70  65  84 CALM      30.18R
Newburgh       CLEAR     75  64  69 CALM      30.17R
Montgomery     CLEAR     73  64  73 S7        30.15S
Poughkeepsie   CLEAR     75  61  61 S5        30.14R
Albany         CLOUDY    78  64  61 S7        30.10R
$$

NJZ001-105-106-008-010-013-015-019>022-104-290400-
NEW JERSEY

CITY           SKY/WX    TMP DP  RH WIND       PRES   REMARKS
Newark/Liberty PTCLDY    76  66  71 S7        30.17R
Teterboro      CLEAR     76  66  71 S5        30.16R
Caldwell       CLEAR     75  65  70 CALM      30.18R
Morristown     CLEAR     68  64  88 CALM      30.18R
Somerville     CLEAR     72  64  76 CALM      30.16R
Linden         FAIR      75  65  71 CALM      30.19R
Sussex         CLEAR     70  68  93 CALM      30.18R
Abdover          N/A     70  65  84 CALM      30.18S
Trenton        CLEAR     74  63  68 S6        30.18R
Millville      CLEAR     68  68 100 CALM      30.19R
Atlantic City  CLEAR     75  67  76 S3        30.18R
Wrightstown    NOT AVBL
Toms River     CLEAR     67  64  90 SW3       30.19R
Belmar         CLEAR     72  67  84 CALM      30.19R
$$

PAZ047>061-062-071-290400-
EASTERN PENNSYLVANIA

CITY           SKY/WX    TMP DP  RH WIND       PRES   REMARKS
Philadelphia   CLEAR     77  65  66 S7        30.20R
Allentown      CLEAR     75  63  66 SW3       30.17R
Scranton       PTCLDY    77  63  61 SW3       30.19R
$$

CTZ002-004>006-009-010-012-RIZ004-006-007-MAZ004-011-015-290400-
SOUTHERN NEW ENGLAND
 IN CT

CITY           SKY/WX    TMP DP  RH WIND       PRES   REMARKS
Bradley INTL   PTCLDY    72  62  71 S9        30.16R
Hartford       CLEAR     74  64  71 CALM      30.16R
Danbury        CLEAR     71  63  75 CALM      30.19R
Wtrbury/Oxford   N/A     70  61  73 S6        30.20S
Bridgeport     CLEAR     76  66  71 SW9       30.17R
Meriden        CLEAR     73  63  70 CALM      30.16S
New Haven      CLEAR     74  65  73 S7        30.17S
Chester        FAIR      70  66  88 CALM      30.18S
Groton         CLEAR     72  65  78 S5        30.16F
Wilimantic     CLEAR     69  65  86 CALM      30.18S

 IN RI

CITY           SKY/WX    TMP DP  RH WIND       PRES   REMARKS
Providence     PTCLDY    68  62  81 SW5       30.18S
Block Island   CLEAR     70  64  81 CALM      30.18F
Westerly       CLEAR     71  63  75 CALM      30.18F
 IN MA

CITY           SKY/WX    TMP DP  RH WIND       PRES   REMARKS
Boston         PTCLDY    71  64  78 SW16      30.14F
Worcester      CLEAR     67  60  78 S10       30.19S
Westfield      CLEAR     72  62  71 S8        30.15R
Provincetown   CLEAR     68  66  93 S12       30.17F
Nantucket      CLEAR     67  65  93 S9        30.18F
$$

ANZ330-335-338-340-345-350-353-355-290400-
COASTAL MARINE OBSERVATIONS


STATION/POSITION TIME  SKY/WX   TEMP    WIND        PRES    VSBY  WAVE
                                AIR SEA DIR/SP/G                  HT/PER
                 (UTC)          (F)     (DEG/KT/KT) (MB)    (MI)  (FT/S)
NY HARB ENTRANCE 0150            76 76  170/ 12/ 14 1021.0          3/15
20S FIRE ISLAND  0150            75 75  160/ 14/ 16 1021.1          3/15
GREAT SOUTH BAY  NOT AVBL
23 SSW MONTAUK P 0150            74 76  170/  8/ 10 1022.2          2/15
15 E BARNEGAT LI 0200               77                N/A           3/15
HUDSON CANYON    0150            75 78              1021.5          3/ 8
KINGS POINT      0200            75 77              1021.1
EXECUTION ROCKS  0200            76     180/  8/ 10   N/A
CENTRAL LI SOUND 0200            74 77  170/ 12/ 14   N/A           1/ 2
EASTERN LI SOUND 0200            72 70  170/  6/  8   N/A
ROBBINS REEF     0200            75     170/  9/ 10 1020.6
$$


>>>>>>>>>>>>>>>>>>>>>>>>>>>> KEY <<<<<<<<<<<<<<<<<<<<<<<<<<<
>                                                          <
>     SKY/WX - Sky Condition/Present Weather               <
>     TMP    - Temperature in Fahrenheit                   <
>     DP     - Dew Point in Fahrenheit                     <
>     RH     - Relative Humidity in Percent                <
>     WIND   - Direction (from) and Speed in MPH           <
>     PRES   - Mean Sea Level Pressure (inches of Hg)      <
>     WCI    - Wind Chill Index                            <
>     VSB    - VISIBILITY IN MILES                         <
>     HX     - HEAT INDEX                                  <
>     TC     - TEMPERATURE IN CELSIUS                      <
>     VRB    - VARIABLE WIND DIRECTION                     <
>                                                          <
>>>>>>>>>>>>>>>>>>>>>>>>>>>> KEY <<<<<<<<<<<<<<<<<<<<<<<<<<<



USA.gov is the U.S. government's official web portal to all federal, state and local government web resources and services.